Location: Street
(51.1247°N, 2.7429°W)
Time: 15:51:48
(UTC+00:00)

SR - Pass Details

Date: 30 November 2020
Orbit: 575 x 880 km, 66.7° (Epoch: 26 January)

Event Time Altitude Azimuth Distance (km) Brightness Sun altitude
Rises 17:02:36 0° 163° (SSE) 2,807 ? -8.3°
Reaches altitude 10° 17:05:40 10° 139° (SE) 1,948 ? -8.8°
Maximum altitude 17:08:01 14° 106° (ESE) 1,711 ? -9.1°
Enters shadow 17:09:54 12° 80° (E) 1,915 ? -9.4°
Drops below altitude 10° 17:10:27 10° 73° (ENE) 2,031 - -9.5°
Sets 17:13:46 0° 50° (NE) 3,011 - -9.9°
